Location: Bushey
(51.6333°N, 0.3667°W)
Time: 18:58:42
(UTC+00:00)

Meteor 1-14 Rocket - Pass Details

Date: 03 March 2021
Orbit: 834 x 918 km, 81.3° (Epoch: 17 April)

Event Time Altitude Azimuth Distance (km) Brightness Sun altitude
Rises 19:22:14 0° 193° (SSW) 3,394 7.4 -15.8°
Reaches altitude 10° 19:24:39 10° 194° (SSW) 2,456 6.7 -16.1°
Maximum altitude 19:30:13 84° 283° (WNW) 849 4.2 -17.0°
Drops below altitude 10° 19:35:47 10° 12° (NNE) 2,459 6.6 -17.8°
Sets 19:38:13 0° 13° (NNE) 3,400 7.4 -18.2°
